When you browse on this site, cookies collect data to enhance your experience and personalize the content and advertising you see.
Visit our Privacy Policy to learn more. By continuing to use the site, you agree to this use of cookies and data.
  • In Hungary
  • List of Countries
  • For 7 days
  • Water Temperature
  • Weather Map
  • News
  • Weather Widgets
  • user-avatar
    Login

    Hourly Weather Horokholyn Lis

    Today, 7 December, Saturday

    Time Temperature Precipitation Wind Pressure Humidity
    00:00 -1°C° 0 mm 2 mps 719 mmHg 72%
    01:00 0°C° 0 mm 1 mps 719 mmHg 76%
    02:00 0°C° 0 mm 1 mps 719 mmHg 76%
    03:00 +1°C° 0 mm 1 mps 719 mmHg 73%
    04:00 +1°C° 0 mm 1 mps 718 mmHg 72%
    05:00 +1°C° 0 mm 1 mps 718 mmHg 68%
    06:00 +1°C° 0 mm 1 mps 718 mmHg 65%
    07:00 +2°C° 0 mm 1 mps 718 mmHg 65%
    08:00 +2°C° 0 mm 1 mps 718 mmHg 65%
    09:00 +2°C° 0 mm 1 mps 718 mmHg 68%
    10:00 +2°C° 0 mm 1 mps 717 mmHg 70%
    11:00 +3°C° 0 mm 1 mps 717 mmHg 71%
    12:00 +4°C° 0 mm 1 mps 717 mmHg 72%
    13:00 +5°C° 0 mm 2 mps 717 mmHg 80%
    14:00 +7°C° 0 mm 1 mps 717 mmHg 81%
    15:00 +6°C° 0 mm 2 mps 717 mmHg 78%
    16:00 +5°C° 0 mm 2 mps 718 mmHg 79%
    17:00 +3°C° 0 mm 3 mps 718 mmHg 84%
    18:00 +3°C° 0 mm 2 mps 718 mmHg 84%
    19:00 +5°C° 0 mm 1 mps 718 mmHg 83%
    20:00 +5°C° 0 mm 1 mps 719 mmHg 83%
    21:00 +2°C° 0 mm 3 mps 719 mmHg 84%
    22:00 +2°C° 0 mm 2 mps 719 mmHg 86%
    23:00 +2°C° 0 mm 2 mps 719 mmHg 85%

    Tomorrow, 8 December, Sunday

    Time Temperature Precipitation Wind Pressure Humidity
    00:00 +1°C° 0 mm 3 mps 719 mmHg 85%
    01:00 +1°C° 0 mm 3 mps 719 mmHg 85%
    02:00 +1°C° 0 mm 3 mps 719 mmHg 86%
    03:00 0°C° 0 mm 3 mps 719 mmHg 87%
    04:00 0°C° 0 mm 3 mps 719 mmHg 87%
    05:00 0°C° 0 mm 4 mps 719 mmHg 88%
    06:00 -1°C° 0 mm 4 mps 719 mmHg 88%
    07:00 -1°C° 0 mm 4 mps 719 mmHg 88%
    08:00 0°C° 0 mm 3 mps 720 mmHg 88%
    09:00 +1°C° 0 mm 3 mps 720 mmHg 88%
    10:00 +2°C° 0 mm 3 mps 720 mmHg 86%
    11:00 +4°C° 0 mm 4 mps 720 mmHg 82%
    12:00 +5°C° 0 mm 3 mps 720 mmHg 79%
    13:00 +5°C° 0 mm 3 mps 720 mmHg 77%
    14:00 +5°C° 0 mm 3 mps 720 mmHg 77%
    15:00 +6°C° 0 mm 2 mps 720 mmHg 78%
    16:00 +6°C° 0 mm 1 mps 719 mmHg 82%
    17:00 +5°C° 0 mm 1 mps 719 mmHg 80%
    18:00 +4°C° 0 mm 1 mps 719 mmHg 79%
    19:00 +4°C° 0 mm 1 mps 719 mmHg 79%
    20:00 +3°C° 0 mm 2 mps 719 mmHg 79%
    21:00 +3°C° 0 mm 2 mps 719 mmHg 80%
    22:00 +2°C° 0 mm 3 mps 718 mmHg 82%
    23:00 +2°C° 0 mm 3 mps 717 mmHg 81%

    Day after tomorrow, 9 December, Monday

    Time Temperature Precipitation Wind Pressure Humidity
    00:00 +2°C° 0 mm 3 mps 717 mmHg 81%
    01:00 +1°C° 0 mm 4 mps 716 mmHg 81%
    02:00 +1°C° 0 mm 5 mps 716 mmHg 83%
    03:00 +1°C° 0 mm 5 mps 716 mmHg 84%
    04:00 +3°C° 0 mm 4 mps 715 mmHg 82%
    05:00 +3°C° 0 mm 3 mps 715 mmHg 79%
    06:00 +3°C° 0 mm 3 mps 715 mmHg 79%
    07:00 +3°C° 0 mm 3 mps 715 mmHg 80%
    08:00 +3°C° 0 mm 3 mps 715 mmHg 82%
    09:00 +4°C° 0 mm 3 mps 715 mmHg 80%
    10:00 +5°C° 0 mm 3 mps 714 mmHg 83%
    11:00 +7°C° 0 mm 2 mps 714 mmHg 86%
    12:00 +9°C° 0 mm 1 mps 714 mmHg 83%
    13:00 +10°C° 0 mm 1 mps 714 mmHg 80%
    14:00 +10°C° 0 mm 1 mps 714 mmHg 79%
    15:00 +9°C° 0 mm 2 mps 714 mmHg 81%
    16:00 +8°C° 0 mm 2 mps 713 mmHg 82%
    17:00 +7°C° 0 mm 2 mps 713 mmHg 83%
    18:00 +6°C° 0 mm 2 mps 713 mmHg 87%
    19:00 +4°C° 0 mm 3 mps 713 mmHg 89%
    20:00 +5°C° 0 mm 3 mps 713 mmHg 87%
    21:00 +6°C° 0 mm 2 mps 713 mmHg 85%
    22:00 +6°C° 0 mm 1 mps 713 mmHg 87%
    23:00 +6°C° 0 mm 1 mps 712 mmHg 91%

    10 December, Tuesday

    Time Temperature Precipitation Wind Pressure Humidity
    00:00 +5°C° 0 mm 1 mps 712 mmHg 92%
    01:00 +5°C° 0 mm 1 mps 712 mmHg 91%
    02:00 +5°C° 0 mm 1 mps 712 mmHg 94%
    03:00 +3°C° 0 mm 0 mps 712 mmHg 99%
    04:00 +2°C° 0 mm 0 mps 712 mmHg 100%
    05:00 +3°C° 0 mm 0 mps 712 mmHg 98%
    06:00 +3°C° 0 mm 0 mps 712 mmHg 96%
    07:00 +3°C° 0 mm 0 mps 713 mmHg 95%
    08:00 +3°C° 0 mm 0 mps 713 mmHg 95%
    09:00 +3°C° 0 mm 0 mps 713 mmHg 95%
    10:00 +4°C° 0.1 mm 1 mps 714 mmHg 100%
    11:00 +5°C° 0 mm 1 mps 714 mmHg 100%
    12:00 +6°C° 0.3 mm 1 mps 715 mmHg 100%
    13:00 +6°C° 1 mm 1 mps 715 mmHg 100%
    14:00 +5°C° 0.6 mm 2 mps 715 mmHg 100%

    11 December, Wednesday

    Time Temperature Precipitation Wind Pressure Humidity

    12 December, Thursday

    Time Temperature Precipitation Wind Pressure Humidity
    Show more